Location: Winnipeg
(49.8830°N, 97.1670°W)
Time: 22:47:44
(UTC-06:00)

Tiangong - Pass Details

Date: 02 December 2022
Orbit: 383 x 386 km, 41.5° (Epoch: 29 January)

Event Time Altitude Azimuth Distance (km) Brightness Sun altitude
Rises 18:25:10 0° 228° (SW) 2,253 2.8 -17.8°
Reaches altitude 10° 18:27:52 10° 203° (SSW) 1,404 1.2 -18.2°
Maximum altitude 18:29:43 15° 167° (SSE) 1,163 0.3 -18.5°
Enters shadow 18:29:59 15° 161° (SSE) 1,169 0.2 -18.5°
